Regional Weather Roundup
Issued by NWS State College, PA

Home | Current Version | Previous Version | Graphics & Text | Print | Product List | Glossary Off
Versions: 1 2 3 4 5 6 7 8 9 10 11 12 13 14 15 16 17 18 19 20 21 22 23 24 25 26 27 28 29 30 31 32 33 34 35 36 37 38 39 40 41 42 43 44 45 46 47 48 49 50

000
ASUS41 KCTP 210910
RWRCTP

REGIONAL WEATHER ROUNDUP
NATIONAL WEATHER SERVICE STATE COLLEGE PA
400 AM EST WED FEB 21 2018

Note: "fair" indicates few or no clouds below 12,000 feet with no
significant weather and/or obstructions to visibility.

* = STATION THAT DOES NOT REPORT PRECIPITATION /E.G. RAIN...SNOW...ETC/
    THUNDER OR FOG.

PAZ002>004-007>009-013>016-020>023-029>032-211000-
WESTERN PENNSYLVANIA

CITY           SKY/WX    TMP DP  RH WIND       PRES   REMARKS
ERIE           FAIR      69  52  54 S22G29    30.05F
MEADVILLE      CLOUDY    64  52  64 S12G18    30.12F
FRANKLIN*      CLOUDY    62  51  67 S15       30.15F
NEW CASTLE     CLOUDY    66  53  63 VRB7      30.15F
BEAVER COUNTY  NOT AVBL
BUTLER*        CLOUDY    63  50  62 S8        30.18F
PITTSBURGH INT CLOUDY    63  50  62 S6        30.17F
PITTSBURGH     FAIR      62  49  62 S10       30.19S
INDIANA*       PTCLDY    61  52  72 SW7       30.24F
LATROBE        FAIR      59  50  72 SW8       30.21F
WASHINGTON CO* CLOUDY    61  51  70 S7        30.22S
$$

PAZ004>006-010>012-017>019-024>028-033>037-041-042-045-046-049>053-211000-
CENTRAL PENNSYLVANIA

CITY           SKY/WX    TMP DP  RH WIND       PRES   REMARKS
BRADFORD       MOCLDY    61  50  67 VRB6      30.17F
DUBOIS         CLOUDY    63  48  58 SW8       30.18F
CLEARFIELD     FAIR      47  46  97 N6        30.21F FOG
JOHNSTOWN      FAIR      60  49  66 S12       30.24F
ALTOONA        FAIR      56  50  80 SW7       30.25F
STATE COLLEGE  FAIR      55  51  85 SW10      30.23S
WILLIAMSPORT   FOG       38  38 100 CALM      30.23F VSB 1/4
SELINSGROVE    FAIR      56  51  84 S7        30.25S
FT INDIANTOWN  FOG       41 N/A N/A CALM      30.28S VSB 1/8
CAPITAL CITY   FAIR      52  50  93 CALM      30.27S
HARRISBURG     FAIR      47  45  93 VRB3      30.27S
YORK           FAIR      60  55  83 S7        30.28S
$$

PAZ038>040-043-044-047-048-054-055-060>062-067>071-211000-
EASTERN PENNSYLVANIA

CITY           SKY/WX    TMP DP  RH WIND       PRES   REMARKS
SCRANTON       FAIR      56  53  90 CALM      30.25S
MOUNT POCONO   FAIR      53  53 100 W8        30.27F
ALLENTOWN      FOG       42  40  92 CALM      30.29S VSB 1/4
QUAKERTOWN*    CLOUDY    59  59 100 S10       30.30S
READING        FAIR      58  57  97 S7        30.28S
LANCASTER      FAIR      54  54 100 SE5       30.29S FOG
COATESVILLE    CLOUDY    59 N/A N/A VRB3      30.32S FOG
POTTSTOWN      CLOUDY    58  58 100 S3        30.31S
BLUE BELL      CLOUDY    59  59 100 SW9       30.32F
DOYLESTOWN     CLOUDY    60  58  92 S6        30.30S
WILLOW GROVE   NOT AVBL
NORTH PHILA    FAIR      60  57  89 SW5       30.33S FOG
PHILADELPHIA   PTCLDY    53  53 100 W6        30.32S FOG
$$




USA.gov is the U.S. government's official web portal to all federal, state and local government web resources and services.